TimeHST,TemperatureF,Dew PointF,Humidity,Sea Level PressureIn,VisibilityMPH,Wind Direction,Wind SpeedMPH,Gust SpeedMPH,PrecipitationIn,Events,Conditions,WindDirDegrees,DateUTC
12:53 AM,70.0,64.9,84,30.00,10.0,Calm,Calm,-,N/A,,Clear,0,2013-10-04 10:53:00
1:53 AM,72.0,64.9,78,30.00,10.0,Variable,3.5,-,N/A,,Partly Cloudy,0,2013-10-04 11:53:00
2:53 AM,71.1,64.9,81,29.99,10.0,Calm,Calm,-,N/A,,Clear,0,2013-10-04 12:53:00
3:53 AM,72.0,64.9,78,29.99,10.0,Variable,3.5,-,N/A,,Clear,0,2013-10-04 13:53:00
4:53 AM,70.0,64.9,84,29.99,10.0,Calm,Calm,-,N/A,,Partly Cloudy,0,2013-10-04 14:53:00
5:53 AM,71.1,64.9,81,30.00,10.0,Calm,Calm,-,N/A,,Clear,0,2013-10-04 15:53:00
6:53 AM,71.1,66.0,84,30.01,10.0,Calm,Calm,-,N/A,,Clear,0,2013-10-04 16:53:00
7:53 AM,78.1,66.9,68,30.02,10.0,Variable,3.5,-,N/A,,Clear,0,2013-10-04 17:53:00
8:53 AM,81.0,66.9,62,30.03,10.0,Variable,5.8,-,N/A,,Partly Cloudy,0,2013-10-04 18:53:00
9:53 AM,82.9,66.9,58,30.04,10.0,East,11.5,18.4,N/A,,Scattered Clouds,80,2013-10-04 19:53:00
10:53 AM,82.9,66.9,58,30.04,10.0,SE,9.2,-,N/A,,Mostly Cloudy,140,2013-10-04 20:53:00
11:53 AM,82.9,66.9,58,30.02,10.0,ESE,8.1,-,N/A,,Overcast,120,2013-10-04 21:53:00
12:53 PM,84.0,66.0,55,30.00,10.0,Variable,6.9,20.7,N/A,,Scattered Clouds,0,2013-10-04 22:53:00
1:53 PM,84.9,66.0,53,29.98,10.0,East,11.5,19.6,N/A,,Mostly Cloudy,100,2013-10-04 23:53:00
2:53 PM,84.9,64.0,49,29.97,10.0,Variable,5.8,-,N/A,,Clear,0,2013-10-05 00:53:00
3:53 PM,84.9,64.9,51,29.96,10.0,Variable,5.8,18.4,N/A,,Clear,0,2013-10-05 01:53:00
4:53 PM,82.9,64.0,53,29.96,10.0,East,8.1,-,N/A,,Clear,90,2013-10-05 02:53:00
5:53 PM,80.1,66.0,62,29.98,10.0,Variable,4.6,-,N/A,,Clear,0,2013-10-05 03:53:00
6:53 PM,77.0,66.0,69,29.99,10.0,Calm,Calm,-,N/A,,Clear,0,2013-10-05 04:53:00
7:53 PM,75.9,66.0,71,30.01,10.0,Variable,3.5,-,N/A,,Partly Cloudy,0,2013-10-05 05:53:00
8:53 PM,75.0,66.0,73,30.03,10.0,Calm,Calm,-,N/A,,Clear,0,2013-10-05 06:53:00
9:53 PM,75.0,66.9,76,30.04,10.0,Calm,Calm,-,N/A,,Clear,0,2013-10-05 07:53:00
10:46 PM,73.4,66.2,78,30.02,10.0,NE,3.5,-,N/A,,Partly Cloudy,50,2013-10-05 08:46:00
10:53 PM,73.9,66.9,79,30.03,10.0,Calm,Calm,-,N/A,,Partly Cloudy,0,2013-10-05 08:53:00
11:53 PM,73.9,66.0,76,30.03,10.0,Calm,Calm,-,N/A,,Mostly Cloudy,0,2013-10-05 09:53:00